Regional Weather Roundup
Issued by NWS Jackson, KY

Home | Current Version | Previous Version | Text Only | Print | Product List | Glossary Off
Versions: 1 2 3 4 5 6 7 8 9 10 11 12 13 14 15 16 17 18 19 20 21 22 23 24 25 26 27

108
ASUS43 KJKL 212210
RWRJKL

EAST KENTUCKY HOURLY WEATHER ROUNDUP
NATIONAL WEATHER SERVICE JACKSON KY
600 PM EDT THU MAY 21 2015

NOTE: "FAIR" INDICATES FEW OR NO CLOUDS BELOW 12,000 FEET WITH
NO SIGNIFICANT WEATHER AND/OR OBSTRUCTIONS TO VISIBILITY.

* THESE REPORTS ARE NOT UNDER NWS QUALITY CONTROL AND MAY NOT
  REPORT WEATHER SUCH AS PRECIPITATION AND FOG.

KYZ079-080-083-085-087-088-110-112-115-119-120-212300
...EASTERN KENTUCKY...

CITY           SKY/WX    TMP DP  RH WIND       PRES   REMARKS
JACKSON        CLOUDY    51  48  89 NW7       30.07R FOG
LONDON         CLOUDY    54  45  71 NW8       30.09R
SOMERSET*      CLOUDY    52  46  82 NW8G16    30.12R
MONTICELLO*    PTSUNNY   55  50  83 NW7       30.13S
MIDDLESBORO*   CLOUDY    55  51  86 W5        30.08R
HARLAN APT*    CLOUDY    54  48  82 W7G16     30.06S
HAZARD APT*    RAIN      54  52  94 NW6       30.07S
BLACK MTN*       N/A     45  45 100 SW2         N/A
PIKEVILLE APT* CLOUDY    52  50  93 W6        30.04S
BIG SANDY*     DRIZZLE   52  50  94 NW8G17    30.06R
MOREHEAD APT*  CLOUDY    54  46  76 NW8G17    30.10R
$$

KYZ035-036-041-042-044-050-067-078-099-212300
...CENTRAL KENTUCKY...

CITY           SKY/WX    TMP DP  RH WIND       PRES   REMARKS
MT STERLING*   CLOUDY    52  45  76 NW7       30.10R
FLEMING/MASON* CLOUDY    54  45  71 W8        30.09S
DANVILLE*      CLOUDY    54  46  76 NW8       30.11S
RICHMOND*      CLOUDY    52  46  82 NW6       30.09S
LEXINGTON      CLOUDY    55  44  66 NW8       30.10R
FRANKFORT      CLOUDY    56  41  57 NW10      30.09S
$$

KYZ091>093-OHZ055-061-077-WVZ005-015-034-035-042-212300
...SOUTHERN OHIO/WEST VIRGINIA...

CITY           SKY/WX    TMP DP  RH WIND       PRES   REMARKS
COVINGTON      CLOUDY    57  41  55 NW14      30.09F
COLUMBUS       CLOUDY    55  41  59 NW15      30.04R
DAYTON         PTSUNNY   59  42  53 W12       30.07F
WILMINGTON     CLOUDY    56  40  55 NW17      30.07R
HUNTINGTON     CLOUDY    53  49  86 W3        30.04R
CHARLESTON     LGT RAIN  52  49  89 VRB6      30.02R FOG
PINEVILLE*     DRIZZLE   54  52  95 MISG      30.06R
BECKLEY        LGT RAIN  50  48  93 NW14G20   29.99R FOG
BLUEFIELD      CLOUDY    56  49  77 NW9       29.99S
$$

VAZ002-007-008-TNZ017-027-036-066-071-212300
...SOUTHWEST VIRGINIA/EAST TENNESSEE...

CITY           SKY/WX    TMP DP  RH WIND       PRES   REMARKS
WISE*          DRIZZLE   52  50  93 NW9       30.04F
JONESVILLE*    CLOUDY    57  50  77 NW7       30.08R
ABINGDON*      PTSUNNY   65  49  56 NW12G23   29.99S
BRISTOL        PTSUNNY   64  49  57 W20G25    29.99R
KNOXVILLE      CLOUDY    61  49  64 W15G24    30.05R
OAK RIDGE      CLOUDY    61  48  62 NW6       30.08R
CROSSVILLE     CLOUDY    52  46  80 NW10      30.11R
NASHVILLE      CLOUDY    58  45  62 N12       30.15S
$$

...KEY TO REMARKS...
VSB - VISIBILITY IN MILES
WCI - WIND CHILL INDEX
HX  - HEAT INDEX

$$



USA.gov is the U.S. government's official web portal to all federal, state and local government web resources and services.